TimeCDT,TemperatureF,Dew PointF,Humidity,Sea Level PressureIn,VisibilityMPH,Wind Direction,Wind SpeedMPH,Gust SpeedMPH,PrecipitationIn,Events,Conditions,WindDirDegrees,DateUTC
12:43 AM,75.2,73.4,94,29.97,6.0,Calm,Calm,-,N/A,,Mostly Cloudy,0,2012-10-09 05:43:00
1:47 AM,73.4,73.4,100,29.96,6.0,WSW,2.3,-,N/A,,Scattered Clouds,240,2012-10-09 06:47:00
2:46 AM,75.2,73.4,94,29.94,6.0,NNW,3.5,-,N/A,,Scattered Clouds,330,2012-10-09 07:46:00
3:40 AM,73.4,73.4,100,29.93,6.0,NW,3.5,-,N/A,,Scattered Clouds,310,2012-10-09 08:40:00
4:45 AM,73.4,73.4,100,29.93,6.0,NW,2.3,-,N/A,,Scattered Clouds,320,2012-10-09 09:45:00
5:42 AM,73.4,73.4,100,29.94,6.0,North,3.5,-,N/A,,Partly Cloudy,360,2012-10-09 10:42:00
6:45 AM,73.4,73.4,100,29.94,6.0,WNW,2.3,-,N/A,,Scattered Clouds,300,2012-10-09 11:45:00
7:47 AM,77.0,77.0,100,29.97,6.0,NNE,2.3,-,N/A,,Scattered Clouds,20,2012-10-09 12:47:00
8:42 AM,82.4,77.0,84,29.99,7.0,NE,2.3,-,N/A,,Scattered Clouds,40,2012-10-09 13:42:00
9:50 AM,86.0,73.4,66,30.01,7.0,East,6.9,-,N/A,,Scattered Clouds,90,2012-10-09 14:50:00
10:46 AM,86.0,73.4,66,30.01,7.0,NE,4.6,-,N/A,,Scattered Clouds,40,2012-10-09 15:46:00
11:47 AM,86.0,73.4,66,30.00,7.0,ESE,8.1,-,N/A,,Scattered Clouds,110,2012-10-09 16:47:00
12:44 PM,87.8,73.4,62,29.98,7.0,ESE,10.4,-,N/A,,Scattered Clouds,120,2012-10-09 17:44:00
1:41 PM,84.2,75.2,74,29.96,7.0,NE,5.8,-,N/A,,Scattered Clouds,50,2012-10-09 18:41:00
2:48 PM,82.4,75.2,79,29.93,7.0,East,4.6,-,N/A,,Mostly Cloudy,80,2012-10-09 19:48:00
3:43 PM,82.4,75.2,79,29.92,7.0,NE,3.5,-,N/A,,Mostly Cloudy,40,2012-10-09 20:43:00
4:42 PM,80.6,75.2,84,29.93,7.0,Calm,Calm,-,N/A,,Mostly Cloudy,0,2012-10-09 21:42:00
5:44 PM,80.6,77.0,89,29.93,7.0,Calm,Calm,-,N/A,,Mostly Cloudy,0,2012-10-09 22:44:00
6:48 PM,78.8,75.2,89,29.92,7.0,Calm,Calm,-,N/A,,Mostly Cloudy,0,2012-10-09 23:48:00
7:42 PM,78.8,75.2,89,29.95,7.0,North,5.8,-,N/A,,Mostly Cloudy,350,2012-10-10 00:42:00
8:41 PM,77.0,73.4,89,29.96,7.0,NNW,3.5,-,N/A,,Mostly Cloudy,330,2012-10-10 01:41:00
9:48 PM,77.0,73.4,89,29.94,7.0,NNE,5.8,-,N/A,,Mostly Cloudy,20,2012-10-10 02:48:00
10:47 PM,77.0,75.2,94,30.00,7.0,NNE,5.8,-,N/A,,Mostly Cloudy,20,2012-10-10 03:47:00
11:46 PM,77.0,75.2,94,29.99,7.0,North,5.8,-,N/A,,Mostly Cloudy,10,2012-10-10 04:46:00